When you browse on this site, cookies collect data to enhance your experience and personalize the content and advertising you see.
Visit our Privacy Policy to learn more. By continuing to use the site, you agree to this use of cookies and data.
  • en France
  • Liste des pays
  • À 7 jours
  • Température de l'eau
  • Carte météo
  • Widgets météo
  • user-avatar
    Se connecter

    Météo par heure à Billericay

    Ce jour, 18 Août, Dimanche

    Heure Température Précipitation Vent Pression Humidité
    00:00 +17°C° 0 mm 4 m/s 748 mmHg 77%
    01:00 +16°C° 0.3 mm 3 m/s 748 mmHg 79%
    02:00 +16°C° 0.3 mm 3 m/s 747 mmHg 80%
    03:00 +16°C° 0.3 mm 3 m/s 747 mmHg 82%
    04:00 +16°C° 0 mm 3 m/s 747 mmHg 82%
    05:00 +16°C° 0 mm 3 m/s 747 mmHg 83%
    06:00 +16°C° 0 mm 2 m/s 746 mmHg 82%
    07:00 +17°C° 0 mm 3 m/s 747 mmHg 79%
    08:00 +17°C° 0 mm 3 m/s 747 mmHg 75%
    09:00 +18°C° 0 mm 4 m/s 747 mmHg 71%
    10:00 +19°C° 0.6 mm 4 m/s 747 mmHg 67%
    11:00 +19°C° 0.6 mm 5 m/s 748 mmHg 64%
    12:00 +20°C° 0.6 mm 6 m/s 748 mmHg 60%
    13:00 +20°C° 0 mm 6 m/s 748 mmHg 57%
    14:00 +21°C° 0 mm 7 m/s 748 mmHg 54%
    15:00 +22°C° 0 mm 7 m/s 749 mmHg 50%
    16:00 +21°C° 0 mm 7 m/s 749 mmHg 54%
    17:00 +20°C° 0 mm 6 m/s 749 mmHg 57%
    18:00 +20°C° 0 mm 5 m/s 749 mmHg 60%
    19:00 +17°C° 0.1 mm 5 m/s 750 mmHg 63%
    20:00 +16°C° 0.1 mm 5 m/s 750 mmHg 66%
    21:00 +15°C° 0.1 mm 5 m/s 751 mmHg 69%
    22:00 +15°C° 0 mm 5 m/s 751 mmHg 71%
    23:00 +14°C° 0 mm 5 m/s 751 mmHg 72%

    Demain, 19 Août, Lundi

    Heure Température Précipitation Vent Pression Humidité
    00:00 +14°C° 0 mm 5 m/s 751 mmHg 74%
    01:00 +13°C° 0 mm 5 m/s 752 mmHg 75%
    02:00 +13°C° 0 mm 5 m/s 752 mmHg 77%
    03:00 +13°C° 0 mm 5 m/s 752 mmHg 78%
    04:00 +13°C° 0 mm 6 m/s 752 mmHg 78%
    05:00 +13°C° 0 mm 6 m/s 753 mmHg 79%
    06:00 +13°C° 0 mm 6 m/s 753 mmHg 79%
    07:00 +14°C° 0 mm 6 m/s 753 mmHg 74%
    08:00 +16°C° 0 mm 6 m/s 754 mmHg 68%
    09:00 +17°C° 0 mm 6 m/s 754 mmHg 63%
    10:00 +19°C° 0.1 mm 6 m/s 754 mmHg 60%
    11:00 +20°C° 0.1 mm 6 m/s 755 mmHg 58%
    12:00 +21°C° 0.1 mm 5 m/s 755 mmHg 55%
    13:00 +21°C° 0.3 mm 5 m/s 755 mmHg 53%
    14:00 +21°C° 0.3 mm 5 m/s 755 mmHg 52%
    15:00 +22°C° 0.3 mm 5 m/s 755 mmHg 50%
    16:00 +21°C° 0.4 mm 5 m/s 755 mmHg 54%
    17:00 +20°C° 0.4 mm 5 m/s 756 mmHg 58%
    18:00 +19°C° 0.4 mm 6 m/s 756 mmHg 62%
    19:00 +17°C° 0 mm 5 m/s 756 mmHg 65%
    20:00 +15°C° 0 mm 5 m/s 757 mmHg 68%
    21:00 +14°C° 0 mm 5 m/s 757 mmHg 72%
    22:00 +14°C° 0 mm 4 m/s 757 mmHg 74%
    23:00 +13°C° 0 mm 4 m/s 758 mmHg 76%

    Après-demain, 20 Août, Mardi

    Heure Température Précipitation Vent Pression Humidité
    00:00 +13°C° 0 mm 4 m/s 758 mmHg 78%
    01:00 +12°C° 0 mm 4 m/s 758 mmHg 79%
    02:00 +12°C° 0 mm 3 m/s 758 mmHg 81%
    03:00 +11°C° 0 mm 3 m/s 759 mmHg 83%
    04:00 +11°C° 0 mm 3 m/s 759 mmHg 83%
    05:00 +12°C° 0 mm 3 m/s 759 mmHg 83%
    06:00 +12°C° 0 mm 3 m/s 759 mmHg 84%
    07:00 +13°C° 0 mm 3 m/s 760 mmHg 76%
    08:00 +15°C° 0 mm 4 m/s 760 mmHg 69%
    09:00 +17°C° 0 mm 4 m/s 761 mmHg 61%
    10:00 +18°C° 0 mm 4 m/s 761 mmHg 57%
    11:00 +19°C° 0 mm 4 m/s 761 mmHg 53%
    12:00 +20°C° 0 mm 4 m/s 762 mmHg 48%
    13:00 +20°C° 0 mm 4 m/s 762 mmHg 47%
    14:00 +20°C° 0 mm 5 m/s 762 mmHg 46%
    15:00 +20°C° 0 mm 5 m/s 762 mmHg 45%
    16:00 +20°C° 0 mm 4 m/s 762 mmHg 48%
    17:00 +19°C° 0 mm 4 m/s 762 mmHg 52%
    18:00 +19°C° 0 mm 3 m/s 763 mmHg 55%
    19:00 +18°C° 0 mm 3 m/s 763 mmHg 59%
    20:00 +17°C° 0 mm 3 m/s 764 mmHg 62%
    21:00 +16°C° 0 mm 2 m/s 764 mmHg 66%
    22:00 +15°C° 0 mm 2 m/s 764 mmHg 71%
    23:00 +15°C° 0 mm 2 m/s 764 mmHg 76%

    21 Août, Mercredi

    Heure Température Précipitation Vent Pression Humidité
    00:00 +14°C° 0 mm 2 m/s 764 mmHg 80%
    01:00 +14°C° 0 mm 2 m/s 764 mmHg 81%
    02:00 +14°C° 0 mm 2 m/s 764 mmHg 83%
    03:00 +14°C° 0 mm 2 m/s 764 mmHg 84%
    04:00 +14°C° 0 mm 2 m/s 764 mmHg 83%
    05:00 +14°C° 0 mm 2 m/s 764 mmHg 83%
    06:00 +14°C° 0 mm 1 m/s 764 mmHg 83%
    07:00 +16°C° 0 mm 2 m/s 764 mmHg 76%
    08:00 +17°C° 0 mm 2 m/s 764 mmHg 70%
    09:00 +18°C° 0 mm 2 m/s 764 mmHg 63%
    10:00 +19°C° 0 mm 2 m/s 764 mmHg 58%
    11:00 +20°C° 0 mm 2 m/s 764 mmHg 53%
    12:00 +23°C° 0 mm 2 m/s 764 mmHg 48%
    13:00 +22°C° 0 mm 3 m/s 763 mmHg 48%
    14:00 +22°C° 0 mm 3 m/s 763 mmHg 49%
    15:00 +22°C° 0 mm 3 m/s 763 mmHg 49%
    16:00 +21°C° 0 mm 3 m/s 763 mmHg 52%
    17:00 +21°C° 0 mm 4 m/s 763 mmHg 56%
    18:00 +20°C° 0 mm 4 m/s 763 mmHg 60%
    19:00 +18°C° 0 mm 4 m/s 763 mmHg 62%
    20:00 +17°C° 0 mm 3 m/s 763 mmHg 64%
    21:00 +16°C° 0 mm 3 m/s 763 mmHg 67%
    22:00 +14°C° 0 mm 3 m/s 763 mmHg 70%
    23:00 +14°C° 0 mm 3 m/s 763 mmHg 73%

    22 Août, Jeudi

    Heure Température Précipitation Vent Pression Humidité
    00:00 +13°C° 0 mm 3 m/s 763 mmHg 76%
    01:00 +13°C° 0 mm 3 m/s 763 mmHg 78%
    02:00 +13°C° 0 mm 3 m/s 763 mmHg 80%
    03:00 +13°C° 0 mm 2 m/s 762 mmHg 82%
    04:00 +13°C° 0 mm 2 m/s 763 mmHg 82%
    05:00 +14°C° 0 mm 2 m/s 763 mmHg 82%
    06:00 +14°C° 0 mm 2 m/s 763 mmHg 82%
    07:00 +15°C° 0 mm 2 m/s 763 mmHg 75%
    08:00 +17°C° 0 mm 3 m/s 763 mmHg 69%
    09:00 +18°C° 0 mm 3 m/s 764 mmHg 62%
    10:00 +20°C° 0 mm 3 m/s 763 mmHg 57%
    11:00 +21°C° 0 mm 3 m/s 763 mmHg 51%
    12:00 +22°C° 0 mm 3 m/s 763 mmHg 46%
    13:00 +24°C° 0 mm 3 m/s 763 mmHg 45%
    14:00 +24°C° 0 mm 3 m/s 763 mmHg 45%
    15:00 +25°C° 0 mm 3 m/s 763 mmHg 44%
    16:00 +24°C° 0 mm 3 m/s 763 mmHg 49%
    17:00 +22°C° 0 mm 3 m/s 763 mmHg 54%
    18:00 +21°C° 0 mm 3 m/s 763 mmHg 60%
    19:00 +20°C° 0 mm 3 m/s 763 mmHg 64%
    20:00 +19°C° 0 mm 3 m/s 763 mmHg 68%
    21:00 +17°C° 0 mm 2 m/s 763 mmHg 73%
    22:00 +17°C° 0 mm 2 m/s 763 mmHg 74%
    23:00 +16°C° 0 mm 2 m/s 763 mmHg 76%

    23 Août, Vendredi

    Heure Température Précipitation Vent Pression Humidité
    00:00 +16°C° 0 mm 1 m/s 763 mmHg 77%
    01:00 +15°C° 0 mm 1 m/s 763 mmHg 78%
    02:00 +15°C° 0 mm 1 m/s 762 mmHg 79%
    03:00 +14°C° 0 mm 1 m/s 762 mmHg 80%
    04:00 +14°C° 0 mm 1 m/s 762 mmHg 78%
    05:00 +15°C° 0 mm 1 m/s 762 mmHg 77%
    06:00 +15°C° 0 mm 1 m/s 762 mmHg 75%
    07:00 +16°C° 0 mm 1 m/s 762 mmHg 67%
    08:00 +19°C° 0 mm 1 m/s 762 mmHg 58%
    09:00 +21°C° 0 mm 1 m/s 762 mmHg 50%
    10:00 +22°C° 0 mm 1 m/s 762 mmHg 44%
    11:00 +23°C° 0 mm 1 m/s 762 mmHg 39%
    12:00 +24°C° 0 mm 1 m/s 762 mmHg 33%
    13:00 +25°C° 0 mm 1 m/s 761 mmHg 33%
    14:00 +25°C° 0 mm 2 m/s 761 mmHg 33%
    15:00 +25°C° 0 mm 2 m/s 761 mmHg 32%
    16:00 +24°C° 0 mm 2 m/s 760 mmHg 39%
    17:00 +23°C° 0 mm 2 m/s 760 mmHg 45%
    18:00 +21°C° 0 mm 2 m/s 760 mmHg 52%
    19:00 +20°C° 0 mm 2 m/s 760 mmHg 55%
    20:00 +19°C° 0 mm 2 m/s 760 mmHg 57%
    21:00 +18°C° 0 mm 2 m/s 760 mmHg 60%
    22:00 +18°C° 0 mm 2 m/s 760 mmHg 62%
    23:00 +17°C° 0 mm 2 m/s 759 mmHg 64%
    Voir plus